Tracking 35237 objects as of 6-Sep-2026
HD Live streaming from Space Station
objects crossing your sky now

COSMOS 1455


COSMOS 1455 is no longer on orbit
COSMOS 1455 is classified as:


NORAD ID: 14032
Int'l Code: 1983-037A
Launch date: April 23, 1983
Source: Commonwealth of Independent States (former USSR) (CIS)
Launch site: PLESETSK MISSILE AND SPACE COMPLEX (PKMTR)
Decay date: 2025-09-04
Your satellite tracking list
Your tracking list is empty




NASA's NSSDC Master Catalog

Two Line Element Set (TLE):
1 14032U 83037A   25247.08734425  .12388913 -12617-5  14924-3 0  9995
2 14032  82.4686 317.7995 0011100 257.9326 102.0734 16.49441356318994
Source of the keplerian elements: AFSPC